Hourly Weather Lindenberg im Allgäu

Today, 29 September, Tuesday

Time Temperature Precipitation Wind Pressure Humidity
00:00 +11°C° 0 mm 0 mps 755 mmHg 82%
01:00 +11°C° 0 mm 0 mps 755 mmHg 83%
02:00 +11°C° 0 mm 0 mps 756 mmHg 83%
03:00 +11°C° 0 mm 0 mps 756 mmHg 84%
04:00 +12°C° 0 mm 1 mps 756 mmHg 84%
05:00 +12°C° 0 mm 1 mps 756 mmHg 84%
06:00 +12°C° 0 mm 1 mps 756 mmHg 84%
07:00 +12°C° 0 mm 1 mps 756 mmHg 83%
08:00 +13°C° 0 mm 1 mps 756 mmHg 80%
09:00 +14°C° 0 mm 1 mps 756 mmHg 76%
10:00 +15°C° 0 mm 1 mps 757 mmHg 73%
11:00 +15°C° 0 mm 1 mps 757 mmHg 72%
12:00 +15°C° 0 mm 1 mps 757 mmHg 71%
13:00 +15°C° 0 mm 1 mps 757 mmHg 70%
14:00 +16°C° 0 mm 1 mps 757 mmHg 69%
15:00 +16°C° 0 mm 1 mps 756 mmHg 68%
16:00 +16°C° 0 mm 1 mps 756 mmHg 67%
17:00 +15°C° 0 mm 1 mps 757 mmHg 71%
18:00 +14°C° 0 mm 1 mps 757 mmHg 75%
19:00 +13°C° 0 mm 1 mps 757 mmHg 79%
20:00 +12°C° 0 mm 1 mps 757 mmHg 80%
21:00 +12°C° 0 mm 1 mps 757 mmHg 81%
22:00 +12°C° 0 mm 1 mps 757 mmHg 82%
23:00 +12°C° 0 mm 1 mps 757 mmHg 83%

Tomorrow, 30 September, Wednesday

Time Temperature Precipitation Wind Pressure Humidity
00:00 +11°C° 0 mm 1 mps 757 mmHg 85%
01:00 +11°C° 0 mm 1 mps 757 mmHg 86%
02:00 +11°C° 0 mm 1 mps 757 mmHg 87%
03:00 +11°C° 0 mm 1 mps 757 mmHg 89%
04:00 +10°C° 0 mm 1 mps 757 mmHg 90%
05:00 +11°C° 0 mm 1 mps 757 mmHg 89%
06:00 +11°C° 0 mm 1 mps 757 mmHg 87%
07:00 +10°C° 0 mm 0 mps 757 mmHg 86%
08:00 +12°C° 0 mm 0 mps 757 mmHg 79%
09:00 +15°C° 0 mm 1 mps 757 mmHg 71%
10:00 +18°C° 0 mm 1 mps 757 mmHg 63%
11:00 +19°C° 0 mm 1 mps 756 mmHg 60%
12:00 +20°C° 0 mm 1 mps 756 mmHg 56%
13:00 +21°C° 0 mm 1 mps 756 mmHg 53%
14:00 +21°C° 0 mm 1 mps 755 mmHg 54%
15:00 +21°C° 0 mm 1 mps 755 mmHg 55%
16:00 +20°C° 0 mm 1 mps 755 mmHg 57%
17:00 +19°C° 0 mm 1 mps 755 mmHg 63%
18:00 +16°C° 0 mm 1 mps 755 mmHg 70%
19:00 +14°C° 0 mm 1 mps 755 mmHg 76%
20:00 +14°C° 0 mm 1 mps 755 mmHg 79%
21:00 +14°C° 0 mm 1 mps 755 mmHg 81%
22:00 +13°C° 0 mm 1 mps 755 mmHg 84%
23:00 +13°C° 0 mm 1 mps 754 mmHg 86%

Day after tomorrow, 1 October, Thursday

Time Temperature Precipitation Wind Pressure Humidity
00:00 +13°C° 0 mm 1 mps 754 mmHg 88%
01:00 +12°C° 0 mm 1 mps 754 mmHg 91%
02:00 +12°C° 0 mm 1 mps 753 mmHg 91%
03:00 +12°C° 0 mm 1 mps 753 mmHg 91%
04:00 +11°C° 0 mm 1 mps 753 mmHg 92%
05:00 +11°C° 0 mm 1 mps 752 mmHg 91%
06:00 +12°C° 0 mm 1 mps 752 mmHg 89%
07:00 +12°C° 0 mm 1 mps 752 mmHg 88%
08:00 +14°C° 0 mm 1 mps 751 mmHg 79%
09:00 +15°C° 0 mm 1 mps 751 mmHg 71%
10:00 +17°C° 0 mm 2 mps 751 mmHg 63%
11:00 +18°C° 0 mm 2 mps 750 mmHg 60%
12:00 +19°C° 0 mm 2 mps 750 mmHg 57%
13:00 +21°C° 0 mm 1 mps 749 mmHg 54%
14:00 +21°C° 0 mm 1 mps 749 mmHg 56%
15:00 +21°C° 0 mm 1 mps 749 mmHg 57%
16:00 +21°C° 0 mm 1 mps 748 mmHg 58%
17:00 +20°C° 0 mm 1 mps 749 mmHg 65%
18:00 +17°C° 0 mm 2 mps 749 mmHg 71%
19:00 +15°C° 0 mm 2 mps 749 mmHg 78%
20:00 +15°C° 0 mm 2 mps 749 mmHg 80%
21:00 +15°C° 0 mm 2 mps 749 mmHg 81%
22:00 +15°C° 0 mm 2 mps 749 mmHg 83%
23:00 +14°C° 0 mm 2 mps 749 mmHg 83%

2 October, Friday

Time Temperature Precipitation Wind Pressure Humidity
00:00 +14°C° 0 mm 2 mps 749 mmHg 83%
01:00 +14°C° 0 mm 1 mps 749 mmHg 82%
02:00 +14°C° 0 mm 2 mps 749 mmHg 82%
03:00 +14°C° 0 mm 2 mps 749 mmHg 81%
04:00 +14°C° 0 mm 2 mps 748 mmHg 80%
05:00 +13°C° 0 mm 3 mps 748 mmHg 81%
06:00 +13°C° 0 mm 3 mps 748 mmHg 82%
07:00 +13°C° 0 mm 4 mps 748 mmHg 83%
08:00 +14°C° 0 mm 4 mps 748 mmHg 79%
09:00 +15°C° 0 mm 4 mps 748 mmHg 75%
10:00 +15°C° 0 mm 4 mps 748 mmHg 71%
11:00 +17°C° 0 mm 4 mps 748 mmHg 68%
12:00 +17°C° 0 mm 5 mps 748 mmHg 66%
13:00 +19°C° 0 mm 5 mps 748 mmHg 63%
14:00 +19°C° 0 mm 5 mps 748 mmHg 64%
15:00 +17°C° 0 mm 5 mps 748 mmHg 66%
16:00 +17°C° 0 mm 5 mps 748 mmHg 67%
17:00 +16°C° 0 mm 5 mps 748 mmHg 70%
18:00 +15°C° 0 mm 4 mps 748 mmHg 73%
19:00 +14°C° 0 mm 4 mps 748 mmHg 77%
20:00 +14°C° 0 mm 4 mps 748 mmHg 79%
21:00 +13°C° 0 mm 4 mps 748 mmHg 81%
22:00 +13°C° 0 mm 4 mps 748 mmHg 84%
23:00 +13°C° 0 mm 4 mps 747 mmHg 85%

3 October, Saturday

Time Temperature Precipitation Wind Pressure Humidity
00:00 +13°C° 0 mm 4 mps 747 mmHg 86%
01:00 +12°C° 0 mm 5 mps 747 mmHg 88%
02:00 +12°C° 0 mm 5 mps 747 mmHg 89%
03:00 +12°C° 0 mm 5 mps 746 mmHg 89%
04:00 +12°C° 0 mm 5 mps 746 mmHg 90%
05:00 +12°C° 0 mm 5 mps 746 mmHg 90%
06:00 +13°C° 0 mm 5 mps 746 mmHg 89%
07:00 +13°C° 0 mm 5 mps 746 mmHg 89%
08:00 +14°C° 0 mm 6 mps 746 mmHg 84%
09:00 +16°C° 0 mm 6 mps 746 mmHg 79%
10:00 +17°C° 0 mm 6 mps 746 mmHg 74%
11:00 +17°C° 0 mm 6 mps 746 mmHg 72%
12:00 +19°C° 0 mm 6 mps 745 mmHg 70%
13:00 +20°C° 0 mm 6 mps 745 mmHg 68%
14:00 +20°C° 0 mm 5 mps 745 mmHg 69%
15:00 +20°C° 0 mm 5 mps 745 mmHg 69%
16:00 +20°C° 0 mm 5 mps 745 mmHg 70%
17:00 +19°C° 0 mm 5 mps 744 mmHg 73%
18:00 +18°C° 0 mm 4 mps 744 mmHg 76%
19:00 +17°C° 0 mm 4 mps 744 mmHg 80%
20:00 +17°C° 0 mm 4 mps 744 mmHg 82%
21:00 +17°C° 0 mm 4 mps 743 mmHg 84%
22:00 +15°C° 0 mm 4 mps 743 mmHg 86%
23:00 +16°C° 0 mm 3 mps 743 mmHg 87%

4 October, Sunday

Time Temperature Precipitation Wind Pressure Humidity
00:00 +16°C° 0 mm 3 mps 743 mmHg 89%
01:00 +14°C° 0 mm 3 mps 742 mmHg 90%
02:00 +14°C° 0 mm 3 mps 742 mmHg 90%
03:00 +14°C° 0 mm 3 mps 742 mmHg 91%
04:00 +14°C° 0 mm 3 mps 742 mmHg 91%
05:00 +14°C° 0 mm 3 mps 743 mmHg 89%
06:00 +14°C° 0 mm 3 mps 743 mmHg 87%
07:00 +14°C° 0 mm 3 mps 743 mmHg 85%
08:00 +14°C° 0 mm 3 mps 744 mmHg 81%
09:00 +16°C° 0 mm 3 mps 744 mmHg 78%
10:00 +17°C° 0 mm 2 mps 744 mmHg 74%
11:00 +17°C° 0 mm 2 mps 744 mmHg 73%
12:00 +18°C° 0 mm 1 mps 744 mmHg 73%
13:00 +16°C° 0 mm 0 mps 743 mmHg 73%
14:00 +15°C° 1.4 mm 0 mps 743 mmHg 79%
15:00 +15°C° 1.4 mm 1 mps 742 mmHg 85%
16:00 +15°C° 1.4 mm 1 mps 742 mmHg 92%
17:00 +14°C° 3.2 mm 2 mps 742 mmHg 92%
18:00 +13°C° 3.2 mm 3 mps 742 mmHg 92%
19:00 +13°C° 3.2 mm 4 mps 743 mmHg 93%
20:00 +12°C° 0 mm 4 mps 744 mmHg 91%
21:00 +12°C° 0 mm 3 mps 745 mmHg 90%
22:00 +11°C° 0 mm 3 mps 746 mmHg 89%
23:00 +11°C° 0 mm 3 mps 747 mmHg 88%
Show more